Home   Weather   Marseille   Past weeks

Flag for France Past Weather in Marseille, Provence-Alpes-Côte d'Azur, France — Yesterday and Last 2 Weeks

Now
55 °F

Sunny.


Feels Like: 49 °F
Forecast: 44 / 57 °F
Wind: 31 mph from Northwest

Location: Marseille / Marignane

Current Time: Feb 24, 2017 at 1:48:29 pm

Latest Report: Feb 24, 2017 at 1:00 pm


Visibility: 10 mi

Pressure: 29.83 "Hg

Humidity: 44%

Dew Point: 34 °F

Location of MarseilleLocation

Past Weather in Marseille — Graph

°F

Marseille Temperature Yesterday

Maximum temperature yesterday: 64 °F (at 11:30 am)
Minimum temperature yesterday: 43 °F (at 3:30 am)
Average temperature yesterday: 53 °F

High & Low Weather Summary for the Past Weeks

 TemperatureHumidityPressure
High66 °F (Feb 21, 2:00 pm)100% (Feb 17, 3:30 am)30.57 "Hg (Feb 17, 3:30 am)
Low39 °F (Feb 21, 4:00 am)27% (Feb 20, 3:00 pm)29.86 "Hg (Feb 24, 3:00 am)
Average54 °F65%30.17 "Hg
* Reported Feb 9 12:00 pm — Feb 24 12:30 pm, Marseille, Weather by CustomWeather, © 2017

Note: Actual official high and low records may vary slightly from our data, if they occured in-between our weather recording intervals... More about our weather records

Advertising

Marseille Weather History for the Previous 24 Hours

Scroll right to see more
 ConditionsComfort  
Time TempWeatherWind HumidityBarometerVisibility
12:30 pm
Fri, Feb 24
57 °FLow clouds.28 mph48%29.86 "HgN/A
12:00 pm57 °FSunny.21 mph51%29.86 "Hg10 mi
11:30 am55 °FSunny.16 mph63%29.86 "Hg10 mi
11:00 am55 °FOvercast.13 mph63%29.86 "HgN/A
10:30 am55 °FSunny.15 mph67%29.86 "Hg10 mi
10:00 am52 °FClear.6 mph94%29.86 "Hg4 mi
9:30 am52 °FClear.6 mph94%29.86 "Hg4 mi
9:00 am50 °FClear.12 mph94%29.86 "Hg4 mi
8:30 am50 °FPassing clouds.9 mph94%29.86 "Hg4 mi
8:00 am50 °FFog.9 mph100%29.86 "Hg3 mi
7:30 am52 °FFog.10 mph94%29.86 "Hg2 mi
7:00 am52 °FFog.9 mph94%29.86 "Hg2 mi
6:30 am52 °FFog.12 mph94%29.86 "Hg2 mi
6:00 am52 °FOvercast.9 mph100%29.86 "Hg4 mi
5:30 am52 °FFog.8 mph100%29.86 "Hg3 mi
5:00 am52 °FLow clouds.9 mph100%29.89 "Hg4 mi
4:30 am52 °FMostly cloudy.8 mph100%29.86 "Hg4 mi
4:00 am52 °FMostly cloudy.9 mph100%29.86 "Hg4 mi
3:30 am52 °FOvercast.5 mph94%29.86 "HgN/A
3:00 am52 °FOvercast.2 mph94%29.86 "HgN/A
2:30 am52 °FPassing clouds.1 mph94%29.89 "Hg6 mi
2:00 am52 °FPassing clouds.5 mph82%29.89 "HgN/A
1:30 am52 °FPassing clouds.2 mph82%29.89 "HgN/A
1:00 am54 °FOvercast.7 mph77%29.92 "HgN/A
12:30 am52 °FPassing clouds.3 mph88%29.92 "HgN/A
12:00 am54 °FClear.3 mph72%29.92 "Hg10 mi
11:30 pm
Thu, Feb 23
55 °FClear.3 mph67%29.92 "Hg10 mi
11:00 pm54 °FClear.8 mph77%29.89 "Hg10 mi
10:30 pm54 °FClear.5 mph72%29.92 "Hg10 mi
10:00 pm55 °FClear.5 mph67%29.92 "Hg10 mi
9:30 pm55 °FClear.1 mph67%29.92 "Hg10 mi
9:00 pm55 °FClear.2 mph67%29.92 "Hg10 mi
8:30 pm54 °FClear.6 mph72%29.92 "Hg10 mi
8:00 pm55 °FClear.5 mph67%29.92 "Hg10 mi
7:30 pm55 °FClear.5 mph67%29.92 "Hg10 mi
7:00 pm55 °FClear.6 mph67%29.92 "Hg10 mi
6:30 pm57 °FClear.7 mph67%29.92 "Hg10 mi
6:00 pm57 °FSunny.7 mph67%29.92 "Hg10 mi
5:30 pm59 °FSunny.6 mph63%29.92 "Hg10 mi
5:00 pm59 °FPassing clouds.8 mph59%29.92 "HgN/A
4:30 pm59 °FSunny.14 mph63%29.92 "Hg10 mi
4:00 pm63 °FSunny.13 mph56%29.92 "Hg10 mi
3:30 pm64 °FSunny.12 mph52%29.92 "Hg10 mi
3:00 pm64 °FSunny.10 mph52%29.95 "Hg10 mi
2:30 pm63 °FPassing clouds.12 mph56%29.95 "HgN/A
2:00 pm63 °FSunny.13 mph56%29.95 "Hg10 mi
1:30 pm63 °FSunny.13 mph56%29.98 "Hg10 mi
1:00 pm63 °FSunny.13 mph56%29.98 "Hg10 mi
Weather by CustomWeather, © 2017

See weather overviewHow to use our weather pages